Location: Taipo
(41.0000°S, 175.9500°E)
Time: 14:18:35
(UTC+00:00)

DELTA 2 R/B (1) - Visible Passes

Search period start: 12 July 2024 00:00
Search period end: 22 July 2024 00:00
Orbit: 789 x 800 km, 39.6° (Epoch: 11 July)

Date Brightness Start Highest point End Pass type
(mag) Time Alt. Az. Time Alt. Az. Time Alt. Az.
12 Jul 3.8 05:32:23 10° W 05:38:01 79° N 05:43:40 10° E visible
12 Jul 4.1 07:18:47 10° W 07:24:16 54° NNW 07:25:29 45° NNE visible
12 Jul 6.5 09:05:56 10° W 09:06:14 11° WNW 09:06:14 11° WNW visible
13 Jul 4.1 06:47:19 10° W 06:52:51 57° NNW 06:56:02 25° NE visible
13 Jul 5.8 08:34:21 10° W 08:36:48 19° WNW 08:36:48 19° WNW visible
14 Jul 4.1 06:15:51 10° W 06:21:24 59° NNW 06:26:44 11° ENE visible
14 Jul 5.3 08:02:47 10° W 08:07:14 24° NNW 08:07:30 24° NNW visible
15 Jul 4.1 05:44:24 10° W 05:49:58 62° NNW 05:55:31 10° ENE visible
15 Jul 5.3 07:31:14 10° W 07:35:50 26° NNW 07:38:20 19° N visible
16 Jul 5.3 06:59:41 10° W 07:04:26 28° NNW 07:09:11 10° NNE visible
17 Jul 5.3 06:28:10 10° W 06:33:02 30° NNW 06:37:53 10° NNE visible
18 Jul 5.3 05:56:39 10° W 06:01:38 33° NNW 06:06:35 10° NE visible
20 Jul 6.5 06:42:46 10° NW 06:44:15 11° NW 06:45:45 10° NNW visible
21 Jul 6.5 06:10:39 10° WNW 06:12:53 12° NW 06:15:07 10° NNW visible
